STARLINK-1434, 45712

Orbit data source: Space-Track

STARLINK-1434, 45712 is a payload satellite owned by SpaceX/Seattle (US) in LEO that was launched on Thu, 04 Jun 2020 UTC via an FALCON 9 launch vehicle from the Air Force Eastern Test Range (AFETR). Payload-class satellites include a variety of spacecraft equipped with specific instruments for various scientific and technological missions. These include communications satellites like Starlink; space stations such as the ISS; scientific satellites like the Hubble; Earth observation satellites from companies like Planet Labs, Umbra, and HawkEye 360; GPS; miniature CubeSats for education and research; and military/defense satellites.

Loading next visibility...
Identifier
45712, 2020-035BH
Orbit
LEO
Country
Flag of USUS
Related business
Manufacturer
SpaceX/Seattle
Mission
Partially operational Commercial Communications
Bus & Motor
STARLINK, Unknown motor
Mass
260 kg wet, ~248 kg dry
Launch date (UTC)
2020-06-04 (6 years ago)
Launch vehicle
FALCON 9
Launch site
Air Force Eastern Test Range (AFETR)
Object type
Payload
Rocket body
Debris
Shape & HBR
Box + 1 Pan, 10.1 m
Radar Cross Section
13.562 m², Large (>1 m²)

Expand to show TLE details & history
Last TLE update: 7 hours ago

TLE from 7 hours ago
0 STARLINK-1434
1 45712U 20035BH  26119.22314855  .00037780  00000-0  12428-2 0  9992
2 45712  53.0492 145.1172 0003898 342.5468  17.5397 15.31178686327128
Epoch: 2026-04-29T05:21Z
TLE epoch observation values (Epoch: 2026-04-29T05:21:20.034Z)
Latitude
-0.00005°
Longitude
-152.4035°
Altitude
470.637 km
Speed
7.633 km/s
True Right ascension
09h 40m 28s
True Declination
0° 00' 00"
Sunlit
Object was in daylight at epoch
Visualization orbit readout
Latitude
Unknown
Longitude
Unknown
Altitude
Unknown
Speed
Unknown
Apparent Right ascension
Unknown
Apparent Declination
Unknown
Sunlit
N/A
Visualization observer readout
Local Sidereal Time
19:58:47
Azimuth
Unknown
Elevation
Unknown
Doppler factor
Unknown
Orbital elements
Apogee altitude
475.239 km
Perigee altitude
469.898 km
Semi-major axis
6,850.706 km
Eccentricity
0.00039
Inclination
53.0492°
RAAN
145.1172°
Arg. of periapsis
342.5468°
True anomaly
17.55317°
Mean anomaly
17.5397°
Eccentric anomaly
17.54643°
Mean motion
3.82772 °/min
Orbital period
94.05 mins
BSTAR
0.0012428
Loading maneuver chart data...
Computing Atmospheric mass density...

Documentation

Showing up to 5 results
|